Probability
0 0 0 0 0 0 0 0 0 0 0 0 0 0 0 0 0 0 0 0 0 0 0 0 0 0 0 0 0 0 0 0 0 0 0 0 0 1 1 1 0 0 0
0 0 0 0 0 0 0 0 0 0 0 0 0 0 0 0 0 0 0 0 0 0 0 0 0 0 1 1 0 0 0 0 0 0 0 0 1 1 1 0 0 0 0
0 0 0 0 0 0 0 0 0 0 0 0 0 0 0 0 0 0 0 0 0 0 0 1 2 2 3 2 1 0 0 0 0 0 0 0 1 2 1 0 0 0 0
0 0 0 0 0 0 0 0 0 0 0 0 0 0 0 0 0 0 0 0 0 0 1 2 3 4 5 4 2 1 0 0 0 0 0 0 1 1 1 0 0 0 0
0 0 0 0 0 0 0 0 0 0 0 0 0 0 0 0 0 0 0 0 0 0 1 2 3 4 6 5 2 1 0 0 0 0 0 0 0 0 0 0 0 0 0
0 0 0 0 0 0 0 0 0 0 0 0 0 0 0 0 0 0 0 0 0 0 0 1 1 2 3 3 1 0 0 0 0 0 0 0 0 0 0 0 0 0 0
0 0 0 0 0 0 0 0 0 0 0 0 0 0 0 0 0 0 0 0 0 0 0 0 0 0 1 1 0 0 0 0 0 0 0 0 0 0 0 0 0 0 0
0 0 0 0 0 0 0 0 0 0 0 0 0 0 0 0 0 0 0 0 0 0 0 0 0 0 0 0 0 0 0 0 0 0 0 0 0 0 0 0 0 0 0
0 0 0 0 0 0 0 0 0 0 0 0 0 0 0 0 0 0 0 0 0 0 0 0 0 0 0 0 0 0 0 0 0 0 0 0 0 0 0 0 0 0 0
0 0 0 0 0 0 0 0 0 0 0 0 0 0 0 0 0 0 0 0 0 0 0 0 0 0 0 0 0 0 0 0 0 0 0 0 0 0 0 0 0 0 0
0 0 0 0 0 0 0 0 0 0 0 0 0 0 0 0 0 0 0 0 0 0 0 0 0 0 0 0 0 0 0 0 0 0 0 0 0 0 0 0 0 0 0
0 0 0 0 0 0 0 0 0 0 0 0 0 0 0 0 0 0 0 0 0 0 0 0 0 0 0 0 0 0 0 0 0 0 0 0 0 0 0 0 0 0 0
0 0 0 0 0 0 0 0 0 0 0 0 0 0 0 0 0 0 0 0 0 0 0 0 0 0 0 0 0 0 0 0 0 0 0 0 0 0 0 0 0 0 0
0 0 0 0 0 0 0 0 0 0 0 0 0 0 0 0 0 0 0 0 0 0 0 0 0 0 0 0 0 0 0 0 0 0 0 0 0 0 0 0 0 0 0
0 0 0 0 0 0 0 0 0 0 0 0 0 0 0 0 0 0 0 0 0 0 0 0 0 0 0 0 0 0 0 0 0 0 0 0 0 0 0 0 0 0 0
0 0 0 0 0 0 0 0 0 0 0 0 0 0 0 0 0 0 0 0 0 0 0 0 0 0 0 0 0 0 0 0 0 0 0 0 0 0 0 0 0 0 0
0 0 0 0 0 0 0 0 0 0 0 0 0 0 0 0 0 0 0 0 0 0 0 0 0 0 0 0 0 0 0 0 0 0 0 0 0 0 0 0 0 0 0
0 0 0 0 0 0 0 0 0 0 0 0 0 0 0 0 0 0 0 0 0 0 0 0 0 0 0 0 0 0 0 0 0 0 0 0 0 0 0 0 0 0 0
0 0 0 0 0 0 0 0 0 0 0 0 0 0 0 0 0 0 0 0 0 0 0 0 0 0 0 0 0 0 0 0 0 0 0 0 0 0 0 0 0 0 0
0 0 0 0 0 0 0 0 0 0 0 0 0 0 0 0 0 0 0 0 0 0 0 0 0 0 0 0 0 0 0 0 0 0 0 0 0 0 0 0 0 0 0
0 0 0 0 0 0 0 0 0 0 0 0 0 0 0 0 0 0 0 0 0 0 0 0 0 0 0 0 0 0 0 0 0 0 0 0 0 0 0 0 0 0 0
0 0 0 0 0 0 0 0 0 0 0 0 0 0 0 0 0 0 0 0 0 0 0 0 0 0 0 0 0 0 0 0 0 0 0 0 0 0 0 0 0 0 0
0 0 0 0 0 0 0 0 0 0 0 0 0 0 0 0 0 0 0 0 0 0 0 0 0 0 0 0 0 0 0 0 0 0 0 0 0 0 0 0 0 0 0
0 0 0 0 0 0 0 0 0 0 0 0 0 0 0 0 0 0 0 0 0 0 0 0 0 0 0 0 0 0 0 0 0 0 0 0 0 0 0 0 0 0 0
0 0 0 0 0 0 0 0 0 0 0 0 0 0 0 0 0 0 0 0 0 0 0 0 0 0 0 0 0 0 0 0 0 0 0 0 0 0 0 0 0 0 0
0 0 0 0 0 0 0 0 0 0 0 0 0 0 0 0 0 0 0 0 0 0 0 0 0 0 0 0 0 0 0 0 0 0 0 0 0 0 0 0 0 0 0
Wind_Speed
2 2 2 2 2 2 3 3 4 5 5 5 5 5 5 5 5 4 4 10 10 10 10 10 9 8 8 8 8 8 8 9 9 9 9 9 9 9 9 8 7 6 6
2 2 2 2 2 2 2 3 4 4 4 4 5 5 5 5 5 5 5 6 10 11 11 10 9 8 8 8 7 7 8 8 9 9 9 9 9 9 9 9 8 7 7
2 2 2 2 2 2 3 3 4 4 4 5 5 5 5 5 5 5 5 4 5 9 11 11 10 9 9 9 8 8 9 9 9 9 9 9 9 9 9 9 8 8 7
3 3 2 2 2 3 3 3 3 4 4 4 4 4 4 4 5 5 5 5 5 5 8 12 12 11 11 10 10 9 9 9 9 9 9 8 8 9 9 9 8 8 7
3 3 2 2 3 3 3 3 3 3 3 3 4 4 4 4 4 5 6 6 5 5 5 9 12 13 12 11 10 10 9 9 9 9 9 9 9 9 9 8 8 8 9
3 3 3 3 3 3 3 3 3 3 3 3 4 5 4 4 4 5 5 5 5 6 6 6 6 8 12 12 11 11 10 10 9 9 9 10 9 9 9 9 9 10 10
3 3 3 3 3 3 3 3 3 4 3 2 3 3 3 4 5 4 4 5 6 6 6 6 5 4 5 11 12 11 11 11 10 10 10 10 10 10 11 11 11 11 10
2 3 3 3 3 3 3 3 3 2 2 2 2 2 2 3 4 5 4 4 5 5 5 6 5 5 5 4 7 12 12 11 11 11 11 11 11 11 12 12 12 12 11
3 3 3 3 3 3 3 2 2 3 2 2 2 3 3 1 1 3 4 4 5 4 4 5 6 6 6 5 5 8 12 11 11 11 11 11 11 12 12 12 12 12 12
3 3 3 3 3 3 2 2 2 2 3 1 2 2 2 3 2 1 2 3 4 5 5 5 5 5 6 4 6 10 12 12 11 11 11 12 12 12 11 12 12 12 11
3 2 3 3 3 2 2 2 3 2 2 2 1 1 2 2 2 3 1 2 3 3 4 4 4 4 5 5 4 7 10 10 11 12 12 12 12 12 12 12 12 12 12
2 2 2 2 2 2 2 2 2 3 2 2 2 2 2 2 2 2 2 1 1 2 3 3 3 3 3 4 5 9 9 10 10 11 11 12 12 12 12 12 13 13 13
1 1 1 2 2 2 2 2 3 2 2 2 2 1 1 1 2 3 3 2 1 1 2 2 2 2 3 3 4 8 8 9 9 9 10 10 11 11 12 12 13 13 13
1 1 1 2 2 2 2 3 2 2 2 2 3 2 2 1 1 2 3 3 2 2 2 2 2 2 2 2 4 6 5 8 8 8 8 9 10 10 10 11 12 12 13
1 2 2 2 2 2 3 3 2 2 2 2 2 2 2 1 1 1 2 3 4 2 1 2 2 2 2 2 4 3 3 6 7 7 7 8 8 8 9 10 10 11 12
2 2 2 2 2 2 2 3 2 2 3 2 2 2 2 1 1 1 2 1 2 3 1 1 1 2 2 2 4 3 3 6 7 7 7 7 7 7 8 8 9 10 10
3 2 2 2 2 2 2 2 2 2 2 2 2 2 2 2 2 1 2 2 2 2 3 0 1 1 2 2 3 3 2 3 3 6 6 6 6 6 7 7 8 9 9
3 3 3 2 2 2 2 2 2 2 2 2 1 2 1 2 2 1 2 2 2 2 3 1 1 1 1 1 2 2 3 3 2 5 6 6 6 6 6 7 7 8 8
3 3 3 3 2 2 2 2 2 2 2 2 2 2 2 2 1 1 2 2 1 2 2 2 0 1 1 1 2 2 3 3 3 4 5 6 6 6 6 6 6 7 8
3 3 3 3 3 2 2 2 2 2 2 1 1 2 2 3 3 2 2 2 2 2 2 2 1 1 1 1 1 1 2 2 2 3 4 4 6 7 7 7 6 7 7
4 3 3 3 2 2 3 3 3 3 2 1 1 1 2 3 4 3 3 3 3 2 2 1 0 0 1 1 1 1 1 2 2 2 2 3 3 3 4 6 6 6 7
3 3 3 4 3 3 5 6 5 3 2 2 1 0 0 1 1 2 3 5 6 4 4 2 1 1 2 2 1 0 0 1 2 2 1 2 2 2 3 2 5 6 6
3 3 3 3 3 4 6 7 7 4 3 2 2 1 0 1 1 1 1 1 2 3 5 4 3 3 3 3 2 1 1 1 2 2 0 2 2 2 3 3 6 6 6
4 4 4 4 3 4 6 7 6 4 3 3 3 3 2 2 2 3 2 1 0 0 2 3 3 4 3 3 4 3 2 1 1 1 0 1 2 2 3 3 5 6 5
3 3 3 4 4 4 6 7 6 3 2 2 2 3 3 3 4 4 4 2 0 1 0 2 2 1 1 2 3 2 1 1 1 2 0 1 2 2 2 2 3 6 6
3 3 3 3 4 4 6 7 7 3 3 2 1 2 4 4 5 5 4 4 3 2 0 1 1 2 2 1 1 2 3 2 1 2 1 1 1 1 3 2 2 3 4
Wind_Direction
67 57 54 53 55 55 59 57 61 63 60 61 63 63 54 46 41 36 28 47 51 51 53 53 52 53 59 61 62 64 65 65 60 55 54 50 47 44 44 43 44 47 49
90 80 67 59 59 61 65 71 72 69 61 62 59 56 52 46 44 42 34 32 39 44 49 49 49 51 57 61 62 63 63 63 62 58 53 50 48 46 45 45 44 45 48
95 95 90 74 70 76 75 73 68 65 65 63 56 49 47 44 46 42 38 30 23 31 38 41 42 49 57 61 64 67 63 62 61 58 54 51 47 44 45 45 46 46 45
95 96 93 80 82 85 81 80 71 70 64 62 57 45 40 40 44 43 40 34 30 25 23 36 40 47 56 58 59 63 62 61 60 58 54 52 48 45 44 44 42 42 39
86 95 92 84 88 84 78 91 75 82 80 72 72 56 42 40 36 44 41 37 34 32 25 28 34 40 48 52 56 60 61 59 57 56 54 51 48 45 43 42 41 38 36
81 90 92 85 87 88 78 81 87 74 79 79 78 62 46 42 44 43 38 35 33 34 32 33 28 28 38 43 46 53 55 56 55 54 53 50 48 44 41 40 42 43 41
80 88 92 84 83 92 98 99 93 80 63 64 76 52 33 39 48 41 35 35 30 27 34 35 32 29 26 34 37 44 47 50 53 54 54 51 49 47 45 44 44 42 40
71 96 98 97 93 97 90 84 93 94 61 43 100 93 42 15 17 29 32 36 27 22 30 32 34 37 34 29 28 39 42 45 51 53 53 52 50 48 45 43 41 38 35
66 82 98 101 97 101 107 100 103 113 115 46 59 126 128 172 341 2 26 33 29 30 24 24 35 35 34 30 22 29 40 43 48 51 50 48 47 45 43 40 37 34 31
61 73 88 95 96 93 101 105 95 104 120 105 56 55 97 142 132 59 2 16 30 36 28 27 28 30 30 28 30 35 40 41 45 47 47 46 44 42 40 37 35 33 30
47 66 83 91 93 92 97 90 88 90 100 121 119 102 80 65 80 120 82 356 15 21 27 24 25 25 25 25 23 36 42 39 41 44 44 44 43 42 40 36 33 31 28
37 52 78 85 91 93 98 98 97 94 91 95 98 105 128 126 125 120 125 86 22 353 15 21 23 16 16 19 23 34 38 39 41 41 41 40 39 39 38 35 32 30 27
54 49 82 93 98 104 105 101 96 90 93 100 105 103 106 119 138 129 124 124 76 352 2 14 10 7 14 17 14 25 32 35 36 38 37 37 35 34 33 32 31 28 26
166 139 115 107 109 108 103 97 87 89 92 95 99 104 97 93 119 135 140 135 101 23 14 348 350 3 1 7 12 19 23 32 33 35 34 34 34 32 31 29 27 24 22
151 136 127 115 102 100 101 100 88 80 85 82 91 101 99 91 101 109 127 140 139 132 329 322 339 338 349 10 14 18 12 25 30 32 32 33 32 31 30 28 26 22 19
135 133 129 126 120 109 106 105 97 85 86 77 91 97 89 87 89 92 109 107 124 140 157 281 294 323 346 19 29 17 16 21 25 29 29 29 29 30 29 27 25 21 18
148 144 141 135 130 122 118 115 112 106 99 80 77 98 87 91 91 83 90 95 99 118 134 302 323 338 359 3 359 3 8 5 7 26 27 29 29 28 25 23 22 19 17
162 160 151 140 138 138 136 136 135 126 126 123 111 106 101 105 91 84 94 100 108 122 139 151 317 338 341 339 345 351 1 13 357 18 23 27 26 26 23 21 17 16 15
160 156 148 153 157 154 151 153 146 143 145 150 146 144 151 129 120 114 112 114 113 109 117 138 207 330 338 354 10 2 3 352 356 12 21 25 25 23 19 15 13 14 14
165 166 165 167 170 167 160 158 148 142 137 136 152 165 167 164 171 162 149 148 130 113 113 121 117 339 328 336 34 6 351 351 346 358 7 11 17 18 12 10 12 14 14
177 173 169 170 172 172 171 164 160 155 152 145 135 181 193 184 184 174 164 165 149 138 133 129 144 356 312 329 300 285 314 324 325 345 346 350 356 359 355 355 4 8 7
173 168 178 177 183 192 177 175 169 165 163 165 184 245 257 218 182 171 169 167 165 161 166 163 183 205 246 236 230 220 279 355 319 331 4 326 351 334 328 333 351 1 3
171 174 183 181 193 205 192 186 183 168 170 184 194 200 188 120 131 123 108 124 167 185 180 173 181 212 217 213 186 206 220 220 252 286 348 303 320 308 311 338 349 354 357
174 183 189 193 198 213 202 194 185 169 170 192 200 196 189 210 188 160 136 104 63 258 207 189 192 216 220 207 192 193 198 213 279 296 169 269 301 293 311 316 336 345 354
180 186 189 191 199 221 209 195 173 156 171 204 214 206 196 209 208 175 147 146 129 310 159 157 172 188 226 200 166 133 132 108 302 295 261 225 285 295 299 301 320 338 346
185 182 193 199 201 218 209 195 175 163 181 208 225 225 216 212 210 187 171 168 192 244 198 48 31 14 15 23 137 166 177 174 221 277 263 216 284 326 313 300 321 332 338